Weather reports worldwide

Advertisment
Ulm-Mähringen, Germany (10840): temperature & dewpoint: 08.07.2020 11:00:00 - 14.07.2020 11:00:00 (CEST)Ulm-Mähringen, Germany (10840): temperature 5cm & temperature -5cm: 08.07.2020 11:00:00 - 14.07.2020 11:00:00 (CEST)Ulm-Mähringen, Germany (10840): temperature -20cm & temperature -100cm: 08.07.2020 11:00:00 - 14.07.2020 11:00:00 (CEST)Ulm-Mähringen, Germany (10840): wind speed & gusts: 08.07.2020 11:00:00 - 14.07.2020 11:00:00 (CEST)Ulm-Mähringen, Germany (10840): wind direction: 08.07.2020 11:00:00 - 14.07.2020 11:00:00 (CEST)Ulm-Mähringen, Germany (10840): reduced air pressure: 08.07.2020 11:00:00 - 14.07.2020 11:00:00 (CEST)Ulm-Mähringen, Germany (10840): visibility: 08.07.2020 11:00:00 - 14.07.2020 11:00:00 (CEST)Ulm-Mähringen, Germany (10840): sunshine duration: 08.07.2020 11:00:00 - 14.07.2020 11:00:00 (CEST)Ulm-Mähringen, Germany (10840): precipitation: 08.07.2020 11:00:00 - 14.07.2020 11:00:00 (CEST)
Date & Time tt [°C] td [°C] tt 5cm [°C] tt -5cm [°C] tt -20cm [°C] tt -100cm [°C] ff [km/h] ff [kn] fx [km/h] fx [kn] dd ppp [hPa] vv [km] sd [min] rr [mm]
14.07.2020 11:00:00 20,4 5,4 25,8 25,5 18,8 17,2 10 6 18 10 ESE 1015,2 52 60 0,0
14.07.2020 10:00:00 19,5 7,9 23,9 22,1 18,6 17,2 5 3 10 5 SE 1015,7 63 60 0,0
14.07.2020 09:00:00 16,8 8,8 19,7 18,1 18,7 17,2 4 2 7 4 E 1016,4 63 60 0,0
14.07.2020 08:00:00 13,2 7,3 17,3 15,0 19,0 17,2 2 1 4 2 NW 1017,7 49 60 0,0
14.07.2020 07:00:00 9,0 6,1 9,8 13,3 19,4 17,1 2 1 5 3 NNW 1019,0 48 55 0,0
14.07.2020 06:00:00 6,7 5,3 5,1 13,4 19,8 17,1 3 2 6 3 W 1019,6 45 1 0,0
14.07.2020 05:00:00 7,2 5,8 5,1 14,0 20,3 17,1 4 2 6 4 W 1019,5 44 0 0,0
14.07.2020 04:00:00 8,4 6,4 6,0 14,8 20,8 17,1 3 2 6 3 NNW 1019,4 51 0 0,0
14.07.2020 03:00:00 8,3 6,3 6,4 15,6 21,3 17,1 4 2 6 3 W 1020,0 46 0 0,0
14.07.2020 02:00:00 8,6 6,5 7,0 16,5 21,8 17,1 4 2 6 4 W 1020,1 46 0 0,0
14.07.2020 01:00:00 9,8 6,9 8,0 17,4 22,2 17,1 4 2 5 3 WNW 1020,2 49 0 0,0
14.07.2020 00:00:00 11,1 7,3 8,7 18,5 22,7 17,1 4 2 6 3 WNW 1020,1 46 0 0,0
13.07.2020 23:00:00 13,1 7,6 10,0 19,9 23,1 17,1 4 2 8 5 NNW 1019,7 48 0 0,0
13.07.2020 22:00:00 14,4 7,7 11,8 21,7 23,3 17,1 6 3 10 5 NE 1019,4 56 8 0,0
13.07.2020 21:00:00 17,0 7,8 16,2 23,9 23,4 17,1 9 5 17 9 ENE 1018,7 58 54 0,0
13.07.2020 20:00:00 20,6 7,0 22,7 26,3 23,4 17,1 10 5 21 11 NE 1017,9 63 60 0,0
13.07.2020 19:00:00 21,1 5,6 23,7 28,1 23,1 17,1 9 5 24 13 ENE 1017,9 61 53 0,0
13.07.2020 18:00:00 22,2 7,1 25,5 29,7 22,6 17,1 9 5 24 13 ENE 1018,0 58 53 0,0
13.07.2020 17:00:00 22,0 6,4 27,8 31,0 22,1 17,1 12 6 23 12 NNE 1018,6 61 60 0,0
13.07.2020 16:00:00 21,6 5,8 28,1 30,1 21,5 17,1 6 3 28 15 E 1019,0 59 47 0,0
13.07.2020 15:00:00 21,3 7,0 26,9 29,7 20,8 17,1 10 6 27 15 E 1019,4 66 47 0,0
13.07.2020 14:00:00 20,0 7,1 22,4 28,9 20,1 17,1 14 7 32 18 ENE 1020,2 49 40 0,0
13.07.2020 13:00:00 20,2 6,3 24,8 28,6 19,4 17,1 21 11 37 20 E 1020,8 75 58 0,0
13.07.2020 12:00:00 19,3 7,3 24,0 26,2 18,8 17,1 21 11 33 18 E 1021,4 69 60 0,0
13.07.2020 11:00:00 18,6 7,0 22,2 23,3 18,4 17,1 21 11 31 17 ENE 1021,8 54 60 0,0
13.07.2020 10:00:00 17,9 7,8 21,6 20,4 18,3 17,1 15 8 23 13 E 1022,2 35 60 0,0
13.07.2020 09:00:00 15,2 7,9 17,9 17,6 18,3 17,1 14 7 20 11 ENE 1023,2 45 60 0,0
13.07.2020 08:00:00 13,6 7,9 16,0 14,7 18,6 17,1 10 5 14 8 NE 1023,5 58 60 0,0
13.07.2020 07:00:00 10,6 6,5 11,1 12,8 19,1 17,1 4 2 10 5 N 1024,2 38 60 0,0
13.07.2020 06:00:00 8,3 6,1 5,2 12,7 19,5 17,1 7 4 9 5 N 1024,7 34 4 0,0
13.07.2020 05:00:00 7,4 5,6 4,7 13,3 20,0 17,1 7 4 10 6 N 1025,0 35 0 0,0
13.07.2020 04:00:00 8,0 6,1 5,2 14,0 20,5 17,1 5 3 7 4 NNW 1025,0 38 0 0,0
13.07.2020 03:00:00 8,3 6,1 5,7 14,9 21,0 17,1 5 3 8 4 NW 1025,3 40 0 0,0
13.07.2020 02:00:00 9,4 7,0 6,4 15,7 21,5 17,1 5 3 8 4 NNW 1025,2 60 0 0,0
13.07.2020 01:00:00 9,2 6,8 7,2 16,7 22,0 17,1 7 4 8 4 N 1025,5 54 0 0,0
13.07.2020 00:00:00 10,3 7,2 8,2 17,8 22,4 17,1 7 4 9 5 NNE 1025,4 59 0 0,0
12.07.2020 23:00:00 11,5 7,5 9,4 19,2 22,9 17,1 5 3 11 6 NNE 1025,3 53 0 0,0
12.07.2020 22:00:00 13,9 7,9 12,3 20,8 23,2 17,1 10 6 15 8 ENE 1024,8 69 0 0,0
12.07.2020 21:00:00 16,6 7,7 15,8 22,9 23,3 17,1 11 6 21 11 E 1023,8 72 60 0,0
12.07.2020 20:00:00 19,0 6,7 20,2 25,2 23,3 17,1 10 6 26 14 ENE 1023,2 64 56 0,0
12.07.2020 19:00:00 20,0 5,8 22,3 27,5 23,1 17,1 12 6 26 14 E 1023,2 74 53 0,0
12.07.2020 18:00:00 20,7 7,1 25,3 29,0 22,6 17,1 10 5 28 15 ENE 1023,1 47 51 0,0
12.07.2020 17:00:00 21,2 7,0 27,0 30,4 22,1 17,1 13 7 29 16 ENE 1023,1 52 55 0,0
12.07.2020 16:00:00 20,1 7,1 25,0 29,9 21,5 17,1 14 8 27 15 E 1023,6 67 44 0,0
12.07.2020 15:00:00 20,3 7,9 27,2 29,3 20,8 17,1 14 7 32 17 E 1023,9 49 42 0,0
12.07.2020 14:00:00 18,4 7,6 20,8 28,2 20,1 17,1 16 9 36 19 ENE 1024,3 63 29 0,0
12.07.2020 13:00:00 19,9 6,3 25,6 27,9 19,4 17,1 13 7 26 14 E 1024,1 74 53 0,0
12.07.2020 12:00:00 18,5 6,7 23,4 26,7 18,7 17,1 13 7 23 12 ENE 1024,3 67 48 0,0
12.07.2020 11:00:00 17,5 8,9 21,6 24,2 18,3 17,1 13 7 22 12 ENE 1024,6 55 56 0,0
12.07.2020 10:00:00 16,9 10,0 21,8 20,5 18,2 17,1 10 6 17 9 ENE 1024,7 49 60 0,0
12.07.2020 09:00:00 14,9 8,6 18,1 16,3 18,3 17,0 10 5 14 7 ENE 1025,3 65 39 0,0
12.07.2020 08:00:00 12,1 7,7 13,1 14,3 18,6 17,0 6 3 10 5 NNE 1025,8 65 51 0,0
12.07.2020 07:00:00 9,8 5,2 10,3 12,7 19,1 17,0 3 2 5 3 W 1025,9 68 48 0,0
12.07.2020 06:00:00 6,5 4,3 4,7 12,7 19,5 17,0 5 3 9 5 WNW 1026,3 68 0 0,0
12.07.2020 05:00:00 7,8 5,1 4,7 13,4 20,0 17,0 4 2 7 4 WNW 1025,8 70 0 0,0
12.07.2020 04:00:00 8,5 5,2 5,4 14,3 20,4 17,0 4 2 8 4 WNW 1025,8 74 0 0,0
12.07.2020 03:00:00 9,1 5,9 7,7 15,2 20,8 17,0 8 4 11 6 NNW 1025,8 60 0 0,0
12.07.2020 02:00:00 10,3 6,4 8,9 16,2 21,2 17,0 9 5 11 6 NNW 1025,5 60 0 0,0
12.07.2020 01:00:00 10,3 6,4 9,6 16,6 21,7 17,0 7 4 11 6 NNW 1025,7 75 0 0,0
12.07.2020 00:00:00 11,2 6,8 10,0 17,4 22,1 17,0 6 3 11 6 NNW 1025,5 72 0 0,0
11.07.2020 23:00:00 10,7 6,4 8,7 18,3 22,5 17,0 6 4 16 8 NW 1025,5 65 0 0,0
11.07.2020 22:00:00 12,7 6,7 9,7 20,0 22,8 17,0 6 3 9 5 NNW 1024,7 70 12 0,0
11.07.2020 21:00:00 15,6 7,4 15,1 22,1 23,0 17,0 7 4 14 8 NNW 1023,3 71 60 0,0
11.07.2020 20:00:00 18,2 6,6 21,1 24,3 23,0 17,0 11 6 22 12 N 1022,3 75 41 0,0
11.07.2020 19:00:00 18,4 5,6 20,0 25,8 22,8 16,9 13 7 26 14 NNW 1022,0 69 26 0,0
11.07.2020 18:00:00 18,8 5,4 21,0 27,4 22,5 16,9 15 8 31 17 NW 1021,7 75 41 0,0
11.07.2020 17:00:00 19,3 6,8 25,0 28,2 22,0 16,9 16 9 42 23 N 1021,3 75 42 0,0
11.07.2020 16:00:00 20,0 7,7 27,1 28,3 21,5 16,9 19 10 35 19 NNW 1020,9 73 48 0,0
11.07.2020 15:00:00 18,8 8,8 23,7 27,2 21,2 16,9 16 9 32 17 NW 1021,4 75 40 0,0
11.07.2020 14:00:00 17,7 8,6 22,0 24,7 20,9 16,9 15 8 28 15 N 1021,5 75 14 0,0
11.07.2020 13:00:00 17,1 9,9 20,9 24,1 20,6 16,9 16 9 28 15 N 1021,4 75 24 0,0
11.07.2020 12:00:00 16,2 10,7 20,1 22,7 20,5 16,9 13 7 25 14 N 1021,5 67 18 0,0
11.07.2020 11:00:00 14,9 11,0 17,5 21,0 20,5 16,9 17 9 26 14 N 1021,3 55 26 0,0
11.07.2020 10:00:00 15,3 11,2 18,1 19,6 20,6 16,9 15 8 23 12 NNW 1020,7 75 24 0,0
11.07.2020 09:00:00 14,7 12,1 15,9 18,1 20,8 16,8 10 6 21 11 NNW 1020,2 66 2 0,0
11.07.2020 08:00:00 13,8 12,3 13,9 17,7 21,1 16,8 13 7 19 10 N 1019,9 31 0 0,0
11.07.2020 07:00:00 13,7 12,4 13,6 17,8 21,4 16,8 10 6 15 8 NNW 1019,5 34 0 0,1
11.07.2020 06:00:00 13,6 12,9 13,7 18,1 21,8 16,8 6 3 11 6 NW 1018,8 37 0 0,0
11.07.2020 05:00:00 13,6 13,0 13,6 18,5 22,1 16,8 3 2 7 4 SSE 1018,2 28 0 0,3
11.07.2020 04:00:00 13,8 12,6 13,5 19,0 22,4 16,8 7 4 10 6 ENE 1018,4 28 0 0,4
11.07.2020 03:00:00 14,7 11,5 14,5 19,6 22,8 16,8 6 3 11 6 NW 1018,5 65 0 0,0
11.07.2020 02:00:00 14,8 11,5 14,6 20,0 23,2 16,8 3 1 8 4 WNW 1018,2 64 0 0,0
11.07.2020 01:00:00 14,5 10,8 14,2 20,4 23,6 16,8 4 2 6 4 NW 1018,1 69 0 0,0
11.07.2020 00:00:00 15,7 11,1 15,1 21,3 23,9 16,8 4 2 10 5 W 1017,5 75 0 0,0
10.07.2020 23:00:00 16,8 10,6 16,4 22,3 24,3 16,8 6 3 10 6 NW 1016,8 72 0 0,0
10.07.2020 22:00:00 18,0 10,7 17,7 23,3 24,6 16,8 9 5 23 12 NW 1016,0 72 0 0,0
10.07.2020 21:00:00 18,7 11,0 18,7 24,6 24,7 16,7 12 6 32 18 NNW 1015,3 71 15 0,0
10.07.2020 20:00:00 20,4 11,5 22,5 26,5 24,8 16,7 23 12 44 24 NNW 1014,0 70 60 0,0
10.07.2020 19:00:00 21,8 12,4 24,2 28,2 24,7 16,7 26 14 47 26 NNW 1012,7 69 60 0,0
10.07.2020 18:00:00 22,7 12,7 26,1 30,0 24,4 16,7 30 16 48 26 NW 1011,9 63 60 0,0
10.07.2020 17:00:00 23,8 13,6 28,0 30,9 24,1 16,7 29 16 50 27 NNW 1011,3 75 50 0,0
10.07.2020 16:00:00 24,8 13,7 26,7 31,2 23,6 16,7 24 13 43 23 NNW 1010,8 48 33 0,0
10.07.2020 15:00:00 28,0 11,3 31,8 30,9 23,2 16,7 30 16 52 28 WSW 1009,6 56 44 0,0
10.07.2020 14:00:00 27,1 13,7 29,9 29,8 22,6 16,7 19 10 36 19 W 1009,9 51 22 0,0
10.07.2020 13:00:00 26,6 14,2 29,0 30,3 21,9 16,7 14 8 29 16 W 1009,9 54 28 0,0
10.07.2020 12:00:00 26,6 13,0 29,2 30,6 21,3 16,7 21 11 34 18 SW 1010,0 72 57 0,0
10.07.2020 11:00:00 25,5 13,5 29,2 27,9 20,8 16,7 16 8 24 13 SSW 1010,3 75 60 0,0
10.07.2020 10:00:00 24,1 13,0 27,5 24,7 20,6 16,7 12 7 27 15 SSW 1010,9 62 60 0,0
10.07.2020 09:00:00 21,6 12,5 24,0 21,6 20,6 16,6 12 7 16 9 SW 1011,5 74 60 0,0
10.07.2020 08:00:00 19,2 11,5 20,6 18,8 20,8 16,6 8 4 14 8 SSW 1011,9 72 60 0,0
10.07.2020 07:00:00 17,0 10,6 17,2 16,9 21,2 16,6 6 4 15 8 SW 1012,7 75 60 0,0
10.07.2020 06:00:00 14,6 10,1 11,3 16,7 21,7 16,6 6 3 18 10 WSW 1013,6 75 4 0,0
10.07.2020 05:00:00 12,0 10,6 9,8 17,1 22,1 16,6 5 3 8 4 WSW 1014,3 61 0 0,0
10.07.2020 04:00:00 13,0 11,2 10,5 17,8 22,6 16,6 2 1 5 3 SW 1014,3 70 0 0,0
10.07.2020 03:00:00 13,2 11,2 11,3 18,6 23,1 16,6 3 2 6 3 WNW 1014,8 63 0 0,0
10.07.2020 02:00:00 14,6 11,9 11,7 19,4 23,6 16,6 3 2 10 5 SW 1014,9 69 0 0,0
10.07.2020 01:00:00 14,5 11,8 13,0 20,3 24,0 16,6 9 5 18 10 S 1015,1 64 0 0,0
10.07.2020 00:00:00 14,9 12,2 12,6 21,5 24,5 16,6 4 2 6 3 W 1015,2 64 0 0,0
09.07.2020 23:00:00 16,7 12,5 13,9 22,9 24,9 16,6 4 2 6 3 W 1014,5 62 0 0,0
09.07.2020 22:00:00 19,8 12,3 16,0 24,7 25,1 16,6 3 2 6 3 W 1013,5 66 11 0,0
09.07.2020 21:00:00 24,6 12,3 20,9 26,9 25,2 16,6 4 2 14 8 W 1012,1 75 60 0,0
09.07.2020 20:00:00 26,5 10,5 27,0 29,2 25,1 16,6 8 5 27 15 W 1011,7 70 60 0,0
09.07.2020 19:00:00 27,5 11,7 29,7 31,4 24,8 16,6 11 6 18 10 WNW 1011,4 61 56 0,0
09.07.2020 18:00:00 26,3 12,7 27,3 31,8 24,4 16,6 8 5 24 13 SW 1012,1 54 24 0,0
09.07.2020 17:00:00 26,9 13,2 31,5 33,2 23,7 16,6 4 2 31 17 WSW 1012,4 75 34 0,0
09.07.2020 16:00:00 27,2 13,0 32,0 34,7 23,0 16,6 9 5 21 12 SW 1012,6 75 53 0,0
09.07.2020 15:00:00 25,8 12,5 29,3 33,4 22,1 16,5 10 5 29 16 W 1013,6 65 50 0,0
09.07.2020 14:00:00 25,4 12,3 30,5 32,7 21,3 16,5 13 7 31 17 S 1014,1 75 52 0,0
09.07.2020 13:00:00 25,2 13,2 30,6 30,9 20,6 16,5 13 7 31 17 SSW 1014,8 75 57 0,0
09.07.2020 12:00:00 23,5 12,0 27,4 28,2 20,1 16,5 17 9 24 13 SSW 1015,5 50 55 0,0
09.07.2020 11:00:00 22,0 13,7 25,8 23,5 19,9 16,5 10 6 18 10 SSW 1016,4 75 15 0,0
09.07.2020 10:00:00 20,2 13,0 21,7 21,6 19,7 16,5 8 5 13 7 SSW 1017,0 53 0 0,0
09.07.2020 09:00:00 19,7 12,2 21,2 20,8 19,8 16,5 10 5 18 10 SW 1017,1 56 46 0,0
09.07.2020 08:00:00 16,6 11,5 18,7 17,7 20,0 16,5 7 4 11 6 SW 1017,7 64 46 0,0
09.07.2020 07:00:00 14,2 11,7 15,7 16,1 20,4 16,5 6 3 8 4 S 1018,1 63 43 0,0
09.07.2020 06:00:00 11,2 10,2 9,7 16,0 20,8 16,5 3 2 5 3 W 1018,7 52 0 0,0
09.07.2020 05:00:00 11,0 9,6 9,7 16,7 21,2 16,5 2 1 5 3 WNW 1018,7 58 0 0,0
09.07.2020 04:00:00 11,9 10,5 10,1 17,4 21,6 16,5 4 2 5 3 WNW 1018,7 54 0 0,0
09.07.2020 03:00:00 12,9 11,0 10,9 18,5 22,0 16,5 4 2 5 3 W 1018,4 64 0 0,0
09.07.2020 02:00:00 15,1 11,8 13,0 19,9 22,3 16,5 2 1 5 3 WSW 1018,2 44 0 0,0
09.07.2020 01:00:00 16,1 12,2 15,9 20,6 22,6 16,5 2 1 8 4 WSW 1018,1 75 0 0,0
09.07.2020 00:00:00 17,3 11,5 16,2 21,2 23,0 16,5 4 2 10 6 W 1018,0 75 0 0,0
08.07.2020 23:00:00 17,0 12,0 16,9 21,9 23,3 16,5 7 4 17 9 NNW 1017,7 72 0 0,0
08.07.2020 22:00:00 18,9 11,0 18,2 22,9 23,5 16,5 8 4 12 6 SW 1016,9 74 0 0,0
08.07.2020 21:00:00 20,1 10,6 19,6 24,1 23,7 16,5 8 5 19 10 SW 1016,4 71 0 0,0
08.07.2020 20:00:00 21,0 9,7 20,8 25,5 23,8 16,5 12 6 30 16 W 1015,9 75 0 0,0
08.07.2020 19:00:00 22,0 9,3 22,2 27,5 23,6 16,5 15 8 34 19 W 1015,4 64 2 0,0
08.07.2020 18:00:00 23,1 10,5 25,3 29,9 23,2 16,5 16 9 31 17 NW 1014,8 63 29 0,0
08.07.2020 17:00:00 23,9 10,2 27,4 31,8 22,6 16,5 21 11 36 20 WNW 1014,5 61 53 0,0
08.07.2020 16:00:00 23,8 10,0 28,3 32,1 21,9 16,5 13 7 34 18 WNW 1014,4 73 57 0,0
08.07.2020 15:00:00 23,3 10,2 28,7 31,8 21,2 16,5 11 6 29 16 W 1014,7 75 56 0,0
08.07.2020 14:00:00 21,9 9,1 25,9 31,0 20,3 16,5 16 9 33 18 WNW 1015,2 61 54 0,0
08.07.2020 13:00:00 22,0 8,4 27,2 30,2 19,5 16,5 14 8 26 14 W 1015,5 70 60 0,0
08.07.2020 12:00:00 20,9 8,2 26,5 27,5 18,9 16,5 12 6 27 15 WSW 1015,9 58 60 0,0
08.07.2020 11:00:00 19,4 8,0 23,0 24,2 18,4 16,5 11 6 31 17 SW 1016,4 58 60 0,0

tt = temperature
td = dewpoint
tt 5cm = temperature 5cm
tt -5cm = temperature -5cm
tt -20cm = temperature -20cm
tt -100cm = temperature -100cm
ff = wind speed
fx = gusts
dd = wind direction
ppp = reduced air pressure
vv = visibility
sd = sunshine duration
rr = precipitation

Next stations